KJ5JYX Weather Reports


time (UTC)temp
C
wind
direction
speed
KPH
gust
KPH
rain 1hr
cm
rain 24hr
cm
rain mn
cm
humidity
%
barometer
mb
20260507002745 16 168 0.0 1.6 0.00 2.87 2.87 89 1014.7
20260507002242 16 163 0.0 0.0 0.00 2.87 2.87 88 1014.3
20260507001738 17 151 0.0 0.0 0.00 2.87 2.87 87 1014.1
20260507001236 17 154 0.0 0.0 0.00 2.87 2.87 88 1014.3
20260507000732 17 156 0.0 0.0 0.00 2.87 2.87 88 1014.2
20260507000228 17 161 0.0 0.0 0.00 2.87 2.87 87 1014.5
20260506235725 17 159 0.0 0.0 0.00 2.87 2.87 87 1014.4
20260506235220 17 159 0.0 0.0 0.00 2.87 2.87 86 1014.4
20260506234717 17 143 0.0 1.6 0.00 2.87 2.87 86 1014.5
20260506234215 17 168 1.6 1.6 0.00 2.87 2.87 87 1014.3
20260506233712 17 163 1.6 3.2 0.00 2.87 2.87 87 1013.9
20260506233209 17 154 0.0 1.6 0.00 2.87 2.87 86 1014.3
20260506232706 17 160 0.0 1.6 0.00 2.87 2.87 86 1014.5
20260506232200 17 154 1.6 1.6 0.00 2.87 2.87 86 1014.1
20260506231658 17 164 0.0 1.6 0.00 2.87 2.87 87 1013.9
20260506231156 17 41 3.2 3.2 0.00 2.87 2.87 86 1014.3
20260506230652 17 108 3.2 3.2 0.00 2.87 2.87 86 1014.5
20260506230149 17 108 0.0 1.6 0.00 2.87 2.87 86 1014.3
20260506225646 17 142 0.0 0.0 0.00 2.87 2.87 87 1014.5
20260506225143 17 164 0.0 1.6 0.00 2.87 2.87 87 1014.2
20260506224639 17 125 0.0 0.0 0.00 2.87 2.87 87 1014.3
20260506224136 17 163 0.0 0.0 0.00 2.87 2.87 87 1014.4
20260506223632 17 171 0.0 0.0 0.00 2.87 2.87 86 1014.2
20260506223128 17 99 1.6 3.2 0.00 2.87 2.87 85 1014.2
20260506222625 17 152 3.2 3.2 0.00 2.87 2.87 85 1014.4
20260506222121 17 108 1.6 1.6 0.00 2.87 2.87 85 1014.0
20260506221619 17 111 0.0 1.6 0.00 2.87 2.87 86 1014.2
20260506221117 17 144 1.6 1.6 0.00 2.87 2.87 87 1013.8
20260506220613 16 158 0.0 0.0 0.00 2.87 2.87 87 1013.8
20260506220109 16 128 1.6 3.2 0.00 2.87 2.87 87 1013.9
20260506215606 16 158 3.2 3.2 0.00 2.87 2.87 86 1014.2
20260506215101 16 70 1.6 3.2 0.00 2.87 2.87 88 1014.2
20260506214558 16 149 1.6 1.6 0.00 2.87 2.87 88 1014.0
20260506214056 16 30 3.2 3.2 0.00 2.87 2.87 87 1014.3
20260506213554 16 270 1.6 3.2 0.00 2.87 2.87 88 1014.3
20260506213051 16 158 0.0 0.0 0.00 2.87 2.87 89 1014.4
20260506212547 16 120 1.6 4.8 0.00 2.87 2.87 88 1014.6
20260506212042 16 138 1.6 1.6 0.00 2.87 2.87 89 1014.3
20260506211538 16 73 1.6 1.6 0.00 2.87 2.87 89 1014.5
20260506211036 16 162 1.6 3.2 0.00 2.87 2.87 89 1014.5
20260506210532 16 237 6.4 11.3 0.00 2.87 2.87 89 1014.3
20260506210029 16 342 6.4 9.7 0.00 2.87 2.87 89 1014.7
20260506205526 16 130 1.6 1.6 0.00 2.87 2.87 89 1014.6
20260506205021 15 108 1.6 3.2 0.00 2.87 2.87 89 1014.4
20260506204519 15 123 1.6 1.6 0.00 2.87 2.87 90 1014.6
20260506204016 15 321 1.6 1.6 0.00 2.87 2.87 90 1014.8
20260506203514 15 185 1.6 1.6 0.00 2.87 2.87 90 1014.9
20260506203010 15 148 1.6 3.2 0.00 2.87 2.87 91 1015.1
20260506202508 15 44 3.2 3.2 0.00 2.87 2.87 90 1014.9
20260506202003 15 165 0.0 0.0 0.00 2.87 2.87 91 1014.9
20260506201502 15 82 1.6 3.2 0.00 2.87 2.87 90 1014.5
20260506200958 15 143 1.6 1.6 0.00 2.87 2.87 90 1014.7
20260506200454 15 128 1.6 3.2 0.00 2.87 2.87 90 1014.8
20260506195951 15 66 1.6 1.6 0.00 2.87 2.87 90 1015.0
20260506195448 15 141 0.0 1.6 0.00 2.87 2.87 91 1015.0
20260506194944 15 358 3.2 3.2 0.00 2.87 2.87 91 1015.0
20260506194442 15 295 3.2 4.8 0.00 2.87 2.87 91 1014.9
20260506193938 15 50 3.2 3.2 0.00 2.87 2.87 90 1015.0
20260506193436 15 189 3.2 4.8 0.00 2.87 2.87 90 1014.9
20260506192932 15 122 3.2 3.2 0.00 2.87 2.87 90 1014.6
20260506192429 15 88 3.2 4.8 0.00 2.87 2.87 90 1014.9
20260506191926 15 126 0.0 1.6 0.00 2.87 2.87 91 1014.7
20260506191422 15 150 0.0 1.6 0.00 2.87 2.87 91 1014.7
20260506190919 15 135 1.6 1.6 0.00 2.87 2.87 91 1014.9
20260506190416 15 14 3.2 3.2 0.00 2.87 2.87 92 1014.9
20260506185913 15 36 3.2 3.2 0.00 2.87 2.87 92 1014.8
20260506185410 15 84 3.2 3.2 0.00 2.87 2.87 93 1015.1
20260506184907 15 309 3.2 4.8 0.00 2.87 2.87 93 1015.2
20260506184404 15 84 1.6 1.6 0.00 2.87 2.87 94 1015.2
20260506183901 15 224 3.2 3.2 0.00 2.87 2.87 95 1015.4
20260506183356 15 28 4.8 4.8 0.00 2.87 2.87 96 1014.9
20260506182854 15 168 0.0 0.0 0.00 2.87 2.87 96 1015.1
20260506182351 15 248 1.6 3.2 0.00 2.87 2.87 97 1015.2
20260506181848 15 39 4.8 4.8 0.00 2.87 2.87 98 1014.9
20260506181346 15 119 0.0 1.6 0.00 2.87 2.87 98 1015.0
20260506180843 15 162 0.0 0.0 0.00 2.87 2.87 98 1015.1
20260506180339 15 104 0.0 0.0 0.00 2.87 2.87 98 1014.8
20260506175835 15 160 0.0 1.6 0.00 2.87 2.87 98 1015.0
20260506175332 15 123 3.2 4.8 0.00 2.87 2.87 97 1014.9
20260506174829 15 169 1.6 1.6 0.00 2.87 2.87 98 1014.7
20260506174327 15 104 6.4 9.7 0.00 2.87 2.87 97 1015.0
20260506173824 16 75 1.6 1.6 0.00 2.87 2.87 98 1014.7
20260506173321 15 92 3.2 4.8 0.00 2.87 2.87 98 1014.4
20260506172818 16 337 3.2 4.8 0.00 2.87 2.87 98 1014.5
20260506172314 16 11 4.8 4.8 0.00 2.87 2.87 98 1014.4
20260506171812 16 173 0.0 1.6 0.00 2.87 2.87 98 1014.3
20260506171309 16 173 0.0 0.0 0.00 2.87 2.87 99 1014.3
20260506170807 16 289 3.2 3.2 0.00 2.87 2.87 98 1014.3
20260506170302 16 161 0.0 1.6 0.00 2.87 2.87 99 1014.3
20260506165802 16 332 1.6 4.8 0.00 2.87 2.87 99 1014.1
20260506165259 16 293 1.6 3.2 0.00 2.87 2.87 99 1014.1
20260506164755 16 312 3.2 3.2 0.00 2.87 2.87 99 1014.0
20260506164252 16 180 0.0 1.6 0.00 2.87 2.87 99 1013.9
20260506163749 16 216 1.6 1.6 0.00 2.87 2.87 99 1013.9
20260506163244 16 235 3.2 3.2 0.13 2.87 2.87 99 1013.4
20260506162740 16 155 0.0 0.0 0.13 2.87 2.87 99 1012.6
20260506162238 16 150 3.2 3.2 0.00 2.84 2.84 99 1012.5
20260506161735 15 173 1.6 3.2 0.00 2.84 2.84 99 1012.6
20260506161232 14 163 1.6 1.6 0.00 2.84 2.84 99 1013.2
20260506160730 14 146 1.6 1.6 0.00 2.84 2.84 99 1013.6
20260506160226 15 154 1.6 1.6 0.00 2.84 2.84 99 1013.3
20260506155725 14 237 1.6 1.6 0.18 2.84 2.84 99 1013.3
20260506155221 15 122 0.0 1.6 0.18 2.84 2.84 99 1013.4
20260506153323 14 148 3.2 3.2 0.66 2.79 2.79 99 1014.5
20260506152820 14 175 0.0 0.0 0.48 2.74 2.74 99 1014.9
20260506152317 14 61 1.6 3.2 0.13 2.69 2.69 99 1014.8
20260506151816 14 144 1.6 1.6 0.00 2.67 2.67 99 1014.6
20260506151312 15 171 0.0 0.0 0.00 2.67 2.67 99 1014.4
20260506150809 15 93 4.8 4.8 0.18 2.67 2.67 99 1014.4
20260506150306 15 143 3.2 3.2 1.07 2.67 2.67 99 1014.0
20260506145803 15 149 1.6 1.6 6.83 2.64 2.64 98 1014.1
20260506145259 15 124 4.8 8.0 10.69 2.57 2.57 98 1014.3
20260506144757 16 39 6.4 9.7 7.44 1.65 1.65 97 1014.2
20260506144254 16 279 4.8 4.8 2.77 0.53 0.53 96 1016.4
20260506143751 16 162 3.2 3.2 0.97 0.20 0.20 95 1014.7
20260506143248 16 31 4.8 9.7 0.30 0.10 0.10 94 1013.5
20260506142747 16 44 3.2 4.8 0.00 0.05 0.05 94 1011.2
20260506142245 16 57 4.8 4.8 0.00 0.05 0.05 93 1012.0
20260506141742 16 52 4.8 4.8 0.00 0.05 0.05 93 1012.8
20260506141241 17 95 3.2 3.2 0.00 0.05 0.05 93 1012.6
20260506140738 17 126 4.8 4.8 0.00 0.05 0.05 93 1012.7
20260506140235 17 72 4.8 4.8 0.00 0.05 0.05 93 1012.5
20260506135731 17 99 4.8 4.8 0.00 0.05 0.05 94 1012.1
20260506135228 18 54 3.2 3.2 0.00 0.05 0.05 94 1012.2
20260506134725 18 43 3.2 4.8 0.00 0.05 0.05 95 1012.3
20260506134221 18 43 1.6 1.6 0.00 0.05 0.05 96 1011.5
20260506133718 19 64 3.2 3.2 0.00 0.05 0.05 97 1011.3
20260506133214 20 23 4.8 4.8 0.00 0.05 0.05 97 1011.0
20260506132712 20 78 1.6 1.6 0.00 0.05 0.05 97 1011.2
20260506132209 20 123 0.0 1.6 0.00 0.05 0.05 98 1010.7
20260506131707 21 112 0.0 1.6 0.00 0.05 0.05 98 1011.0
20260506131202 23 146 1.6 1.6 0.00 0.05 0.05 99 1011.0
20260506130659 23 152 0.0 1.6 0.00 0.05 0.05 99 1010.8
20260506130157 23 168 0.0 0.0 0.00 0.05 0.05 99 1010.7
20260506125655 23 160 0.0 0.0 0.00 0.05 0.05 99 1010.8
20260506125152 23 159 0.0 0.0 0.00 0.05 0.05 99 1010.8
20260506124650 23 162 0.0 0.0 0.00 0.05 0.05 99 1010.5
20260506124148 23 162 0.0 0.0 0.00 0.05 0.05 99 1010.5
20260506123645 23 160 0.0 0.0 0.00 0.05 0.05 99 1010.0
20260506123144 22 168 0.0 0.0 0.00 0.05 0.05 99 1010.3
20260506122640 22 162 0.0 0.0 0.00 0.05 0.05 99 1010.4
20260506122138 22 162 0.0 0.0 0.00 0.05 0.05 99 1010.4
20260506121635 22 165 0.0 0.0 0.00 0.05 0.05 99 1010.4
20260506121131 22 176 0.0 0.0 0.00 0.05 0.05 99 1010.7
20260506120630 22 176 0.0 0.0 0.00 0.05 0.05 99 1010.4
20260506120126 22 176 0.0 0.0 0.13 0.05 0.05 98 1010.3
20260506115625 23 176 0.0 0.0 0.30 0.05 0.05 98 1010.2
20260506115123 23 176 0.0 0.0 0.18 0.03 0.03 98 1010.4
20260506114620 23 176 0.0 0.0 0.00 0.00 0.00 98 1010.2
20260506114118 23 176 0.0 0.0 0.00 0.00 0.00 98 1010.2
20260506113616 23 176 0.0 0.0 0.00 0.00 0.00 98 1010.3
20260506113113 23 177 0.0 0.0 0.00 0.00 0.00 97 1010.1
20260506112609 23 176 0.0 0.0 0.00 0.00 0.00 97 1010.4
20260506112107 23 176 0.0 0.0 0.00 0.00 0.00 97 1010.2
20260506111604 23 176 0.0 0.0 0.00 0.00 0.00 97 1010.4
20260506111101 23 177 0.0 0.0 0.00 0.00 0.00 97 1010.2
20260506110559 23 177 0.0 0.0 0.00 0.00 0.00 97 1010.2
20260506110056 23 176 0.0 0.0 0.00 0.00 0.00 97 1010.3
20260506105552 23 177 0.0 0.0 0.00 0.00 0.00 96 1010.4
20260506105050 23 173 0.0 0.0 0.00 0.00 0.00 96 1010.3
20260506104548 23 173 0.0 0.0 0.00 0.00 0.00 96 1010.4
20260506104045 23 181 0.0 0.0 0.00 0.00 0.00 95 1010.3
20260506103542 23 176 0.0 0.0 0.00 0.00 0.00 95 1010.3
20260506103039 23 175 0.0 0.0 0.00 0.00 0.00 95 1010.2
20260506102537 23 179 0.0 0.0 0.00 0.00 0.00 94 1010.2
20260506102034 23 182 0.0 0.0 0.00 0.00 0.00 94 1010.0
20260506101531 23 189 0.0 0.0 0.00 0.00 0.00 93 1010.1
20260506101028 23 165 0.0 1.6 0.00 0.00 0.00 93 1010.0
20260506100526 23 187 0.0 0.0 0.00 0.00 0.00 93 1010.1
20260506100024 23 187 0.0 0.0 0.00 0.00 0.00 93 1009.8
20260506095523 23 186 0.0 1.6 0.00 0.00 0.00 93 1009.7
20260506095018 23 243 0.0 3.2 0.00 0.00 0.00 93 1009.7
20260506094516 23 179 0.0 0.0 0.00 0.00 0.00 93 1009.5
20260506094014 23 165 0.0 0.0 0.00 0.00 0.00 93 1009.6
20260506093512 23 171 0.0 0.0 0.00 0.00 0.00 93 1009.5
20260506093009 23 179 0.0 0.0 0.00 0.00 0.00 93 1009.5
20260506092507 23 177 0.0 0.0 0.00 0.00 0.00 92 1009.8
20260506092003 24 176 0.0 0.0 0.00 0.00 0.00 92 1009.3
20260506091502 24 176 0.0 0.0 0.00 0.00 0.00 92 1009.4
20260506090958 24 182 0.0 0.0 0.00 0.00 0.00 91 1009.4
20260506090457 24 173 0.0 0.0 0.00 0.00 0.00 91 1009.2
20260506085952 24 169 0.0 0.0 0.00 0.00 0.00 91 1009.2
20260506085449 24 165 0.0 0.0 0.00 0.00 0.00 91 1009.0
20260506084946 24 174 0.0 0.0 0.00 0.00 0.00 91 1009.2
20260506084443 24 175 0.0 0.0 0.00 0.00 0.00 91 1009.3
20260506083939 24 168 0.0 0.0 0.00 0.00 0.00 91 1009.2
20260506083437 24 167 0.0 0.0 0.00 0.00 0.00 91 1009.5
20260506082933 24 171 0.0 0.0 0.00 0.00 0.00 91 1008.9
20260506082431 24 169 0.0 0.0 0.00 0.00 0.00 91 1008.9
20260506081926 24 177 1.6 3.2 0.00 0.00 0.00 90 1008.9
20260506081425 24 204 1.6 3.2 0.00 0.00 0.00 90 1009.0
20260506080921 24 165 0.0 0.0 0.00 0.00 0.00 91 1009.2
20260506080418 24 165 0.0 0.0 0.00 0.00 0.00 90 1009.0
20260506073402 24 227 4.8 8.0 0.00 0.00 0.00 90 1009.2
20260506072859 24 165 0.0 0.0 0.00 0.00 0.00 90 1009.4
20260506072357 24 148 1.6 1.6 0.00 0.00 0.00 90 1009.3
20260506071854 24 168 0.0 0.0 0.00 0.00 0.00 91 1009.3
20260506071352 24 142 0.0 0.0 0.00 0.00 0.00 91 1009.2
20260506070849 24 180 1.6 1.6 0.00 0.00 0.00 91 1009.4
20260506070346 24 167 0.0 1.6 0.00 0.00 0.00 91 1009.2
20260506062323 24 167 0.0 0.0 0.00 0.00 0.00 92 1009.0
20260506061819 24 158 0.0 1.6 0.00 0.00 0.00 92 1009.0
20260506061316 24 176 0.0 1.6 0.00 0.00 0.00 92 1009.0
20260506060814 24 170 0.0 1.6 0.00 0.00 0.00 92 1008.9
20260506060312 24 163 1.6 3.2 0.00 0.00 0.00 92 1008.8
20260506051243 24 171 0.0 1.6 0.00 0.00 0.00 90 1008.8
20260506050741 24 165 1.6 1.6 0.00 0.00 0.00 90 1008.8
20260506050238 24 157 4.8 4.8 0.00 0.00 0.00 89 1008.8
20260506044729 24 168 0.0 0.0 0.00 0.00 0.00 89 1009.0
20260506044227 24 187 0.0 1.6 0.00 0.00 0.00 89 1009.0
20260506043724 24 167 0.0 0.0 0.00 0.00 0.00 89 1008.8
20260506043221 24 161 0.0 0.0 0.00 0.00 0.00 88 1008.9
20260506042720 25 172 0.0 1.6 0.00 0.00 0.00 88 1008.8
20260506042218 25 170 0.0 1.6 0.00 0.00 0.00 88 1008.9
20260506041716 25 152 0.0 0.0 0.00 0.00 0.00 87 1008.7
20260506041213 25 139 1.6 3.2 0.00 0.00 0.00 87 1008.8
20260506040710 25 163 1.6 1.6 0.00 0.00 0.00 87 1008.8
20260506040207 25 170 0.0 0.0 0.00 0.00 0.00 87 1008.9
20260506035704 25 174 0.0 0.0 0.00 0.00 0.00 87 1008.8
20260506035201 25 168 0.0 0.0 0.00 0.00 0.00 87 1008.6
20260506034657 25 178 0.0 0.0 0.00 0.00 0.00 86 1008.9
20260506034155 25 162 0.0 0.0 0.00 0.00 0.00 86 1008.7
20260506033652 25 175 0.0 0.0 0.00 0.00 0.00 86 1008.6
20260506033149 25 189 0.0 1.6 0.00 0.00 0.00 85 1008.5
20260506032646 25 195 1.6 1.6 0.00 0.00 0.00 85 1008.7
20260506032143 25 172 0.0 1.6 0.00 0.00 0.00 85 1008.4
20260506031640 25 159 0.0 0.0 0.00 0.00 0.00 85 1008.3
20260506031136 25 164 0.0 0.0 0.00 0.00 0.00 85 1008.2
20260506030636 25 173 0.0 0.0 0.00 0.00 0.00 85 1008.1
20260506030132 25 174 0.0 0.0 0.00 0.00 0.00 84 1008.1
20260506025629 25 176 0.0 1.6 0.00 0.00 0.00 84 1008.1
20260506025125 25 170 0.0 1.6 0.00 0.00 0.00 84 1007.9
20260506024623 25 198 0.0 1.6 0.00 0.00 0.00 84 1007.8
20260506024118 25 187 0.0 1.6 0.00 0.00 0.00 84 1007.6
20260506023615 25 182 1.6 3.2 0.00 0.00 0.00 83 1007.6
20260506023112 25 160 0.0 0.0 0.00 0.00 0.00 83 1007.7
20260506022610 25 187 0.0 1.6 0.00 0.00 0.00 83 1007.7
20260506022107 25 162 0.0 0.0 0.00 0.00 0.00 83 1007.5
20260506021605 25 162 0.0 0.0 0.00 0.00 0.00 82 1007.3
20260506021101 26 154 0.0 0.0 0.00 0.00 0.00 81 1007.3
20260506020559 26 159 0.0 0.0 0.00 0.00 0.00 81 1007.3
20260506020056 26 164 0.0 0.0 0.00 0.00 0.00 81 1007.2
20260506015554 26 169 0.0 0.0 0.00 0.00 0.00 80 1007.1
20260506015050 26 165 0.0 0.0 0.00 0.00 0.00 80 1007.1
20260506014548 26 174 0.0 0.0 0.00 0.00 0.00 79 1007.1
20260506014043 26 179 0.0 0.0 0.00 0.00 0.00 79 1007.1
20260506013542 26 131 0.0 1.6 0.00 0.00 0.00 79 1006.8
20260506013038 26 164 0.0 1.6 0.00 0.00 0.00 78 1006.6
20260506012534 26 170 0.0 1.6 0.00 0.00 0.00 78 1006.7
20260506012031 27 168 0.0 0.0 0.00 0.00 0.00 78 1006.7
20260506011529 27 140 0.0 0.0 0.00 0.00 0.00 78 1006.5
20260506011025 27 169 0.0 0.0 0.00 0.00 0.00 77 1006.6
20260506010525 27 174 1.6 1.6 0.00 0.00 0.00 77 1006.4
20260506010021 27 175 0.0 0.0 0.00 0.00 0.00 77 1006.3
20260506005518 27 169 0.0 0.0 0.00 0.00 0.00 76 1006.4
20260506005013 27 101 1.6 3.2 0.00 0.00 0.00 76 1006.3
20260506004511 27 171 3.2 4.8 0.00 0.00 0.00 75 1006.3
20260506004008 28 162 0.0 1.6 0.00 0.00 0.00 75 1006.4
20260506003504 28 194 1.6 1.6 0.00 0.00 0.00 74 1006.3
20260506003000 28 164 1.6 3.2 0.00 0.00 0.00 74 1006.2